Time,TemperatureF,DewpointF,PressureIn,WindDirection,WindDirectionDegrees,WindSpeedMPH,WindSpeedGustMPH,Humidity,HourlyPrecipIn,Conditions,Clouds,dailyrainin,SoftwareType,DateUTC
2013-01-09 00:04:00,28.1,26.3,30.21,ESE,111,0.0,0.0,93,0.00,,,-99.99,Meteorologica,2013-01-09 06:04:00,
2013-01-09 00:09:00,28.1,26.3,30.21,ESE,111,0.0,0.0,92,0.00,,,-99.99,Meteorologica,2013-01-09 06:09:00,
2013-01-09 00:14:00,27.9,26.1,30.22,ESE,111,0.0,0.0,92,0.00,,,-99.99,Meteorologica,2013-01-09 06:14:00,
2013-01-09 00:19:00,27.9,26.1,30.22,ESE,111,0.0,0.0,93,0.00,,,-99.99,Meteorologica,2013-01-09 06:19:00,
2013-01-09 00:24:00,27.8,26.0,30.22,ESE,111,0.0,0.0,93,0.00,,,-99.99,Meteorologica,2013-01-09 06:24:00,
2013-01-09 00:29:00,27.8,26.1,30.22,South,183,0.0,2.4,93,0.00,,,-99.99,Meteorologica,2013-01-09 06:29:00,
2013-01-09 00:35:00,27.8,26.0,30.22,South,183,0.0,0.0,93,0.00,,,-99.99,Meteorologica,2013-01-09 06:35:00,
2013-01-09 00:41:00,27.7,25.9,30.23,South,183,0.0,0.0,93,0.00,,,-99.99,Meteorologica,2013-01-09 06:41:00,
2013-01-09 00:46:00,27.5,25.7,30.23,South,183,0.0,0.0,93,0.00,,,-99.99,Meteorologica,2013-01-09 06:46:00,
2013-01-09 00:51:00,27.4,25.6,30.23,South,183,0.0,0.0,93,0.00,,,-99.99,Meteorologica,2013-01-09 06:51:00,
2013-01-09 00:56:00,27.2,25.5,30.24,South,183,0.0,0.0,93,0.00,,,-99.99,Meteorologica,2013-01-09 06:56:00,
2013-01-09 01:01:00,27.3,25.5,30.24,South,183,0.0,0.0,93,0.00,,,-99.99,Meteorologica,2013-01-09 07:01:00,
2013-01-09 01:06:00,27.3,25.6,30.24,South,183,0.0,0.0,93,0.00,,,-99.99,Meteorologica,2013-01-09 07:06:00,
2013-01-09 01:11:00,27.4,25.6,30.24,South,183,0.0,0.0,93,0.00,,,-99.99,Meteorologica,2013-01-09 07:11:00,
2013-01-09 01:16:00,27.7,26.0,30.24,South,183,0.0,0.0,93,0.00,,,-99.99,Meteorologica,2013-01-09 07:16:00,
2013-01-09 01:21:00,27.8,26.1,30.24,South,183,0.0,0.0,93,0.00,,,-99.99,Meteorologica,2013-01-09 07:21:00,
2013-01-09 01:26:00,27.9,26.2,30.24,South,183,0.0,0.0,93,0.00,,,-99.99,Meteorologica,2013-01-09 07:26:00,
2013-01-09 01:31:00,27.9,26.0,30.24,South,183,0.0,0.0,92,0.00,,,-99.99,Meteorologica,2013-01-09 07:31:00,
2013-01-09 01:36:00,27.4,25.5,30.24,South,183,0.0,0.0,92,0.00,,,-99.99,Meteorologica,2013-01-09 07:36:00,
2013-01-09 01:41:00,26.9,25.0,30.25,South,183,0.0,0.0,92,0.00,,,-99.99,Meteorologica,2013-01-09 07:41:00,
2013-01-09 01:46:00,26.7,24.9,30.25,South,183,0.0,0.0,92,0.00,,,-99.99,Meteorologica,2013-01-09 07:46:00,
2013-01-09 01:51:00,26.7,24.9,30.26,South,183,0.0,0.0,93,0.00,,,-99.99,Meteorologica,2013-01-09 07:51:00,
2013-01-09 01:56:00,26.6,24.8,30.26,South,183,0.0,0.0,93,0.00,,,-99.99,Meteorologica,2013-01-09 07:56:00,
2013-01-09 02:01:00,26.4,24.7,30.27,South,183,0.0,0.0,93,0.00,,,-99.99,Meteorologica,2013-01-09 08:01:00,
2013-01-09 02:06:00,26.5,24.8,30.27,South,183,0.0,0.0,93,0.00,,,-99.99,Meteorologica,2013-01-09 08:06:00,
2013-01-09 02:11:00,26.3,24.6,30.27,South,183,0.0,0.0,93,0.00,,,-99.99,Meteorologica,2013-01-09 08:11:00,
2013-01-09 02:16:00,26.1,24.4,30.27,South,183,0.0,0.0,93,0.00,,,-99.99,Meteorologica,2013-01-09 08:16:00,
2013-01-09 02:21:00,26.0,24.3,30.27,South,183,0.0,0.0,93,0.00,,,-99.99,Meteorologica,2013-01-09 08:21:00,
2013-01-09 02:26:00,25.8,24.1,30.28,South,183,0.0,0.0,93,0.00,,,-99.99,Meteorologica,2013-01-09 08:26:00,
2013-01-09 02:31:00,25.8,24.1,30.28,South,183,0.0,0.0,93,0.00,,,-99.99,Meteorologica,2013-01-09 08:31:00,
2013-01-09 02:36:00,25.5,23.8,30.28,South,183,0.0,0.0,93,0.00,,,-99.99,Meteorologica,2013-01-09 08:36:00,
2013-01-09 02:41:00,25.5,23.8,30.29,South,183,0.0,0.0,93,0.00,,,-99.99,Meteorologica,2013-01-09 08:41:00,
2013-01-09 02:46:00,25.4,23.7,30.29,South,183,0.0,0.0,93,0.00,,,-99.99,Meteorologica,2013-01-09 08:46:00,
2013-01-09 02:51:00,25.4,23.8,30.30,South,183,0.0,0.0,93,0.00,,,-99.99,Meteorologica,2013-01-09 08:51:00,
2013-01-09 02:56:00,25.3,23.7,30.30,South,183,0.0,0.0,93,0.00,,,-99.99,Meteorologica,2013-01-09 08:56:00,
2013-01-09 03:01:00,25.3,23.7,30.30,South,183,0.0,0.0,93,0.00,,,-99.99,Meteorologica,2013-01-09 09:01:00,
2013-01-09 03:06:00,25.4,23.8,30.31,South,183,0.0,0.0,93,0.00,,,-99.99,Meteorologica,2013-01-09 09:06:00,
2013-01-09 03:11:00,25.4,23.8,30.31,South,183,0.0,0.0,93,0.00,,,-99.99,Meteorologica,2013-01-09 09:11:00,
2013-01-09 03:16:00,25.3,23.7,30.30,South,183,0.0,0.0,93,0.00,,,-99.99,Meteorologica,2013-01-09 09:16:00,
2013-01-09 03:21:00,25.4,23.8,30.31,South,183,0.0,0.0,93,0.00,,,-99.99,Meteorologica,2013-01-09 09:21:00,
2013-01-09 03:26:00,25.4,23.8,30.31,South,183,0.0,0.0,93,0.00,,,-99.99,Meteorologica,2013-01-09 09:26:00,
2013-01-09 03:31:00,25.6,24.0,30.31,South,183,0.0,0.0,93,0.00,,,-99.99,Meteorologica,2013-01-09 09:31:00,
2013-01-09 03:36:00,25.7,24.1,30.31,South,183,0.0,0.0,93,0.00,,,-99.99,Meteorologica,2013-01-09 09:36:00,
2013-01-09 03:41:00,25.7,24.1,30.31,South,183,0.0,0.0,93,0.00,,,-99.99,Meteorologica,2013-01-09 09:41:00,
2013-01-09 03:46:00,25.7,24.1,30.31,South,183,0.0,0.0,93,0.00,,,-99.99,Meteorologica,2013-01-09 09:46:00,
2013-01-09 03:51:00,25.6,24.0,30.31,South,183,0.0,0.0,93,0.00,,,-99.99,Meteorologica,2013-01-09 09:51:00,
2013-01-09 03:56:00,25.6,24.0,30.32,South,183,0.0,0.0,93,0.00,,,-99.99,Meteorologica,2013-01-09 09:56:00,
2013-01-09 04:01:00,25.4,23.8,30.32,South,183,0.0,0.0,93,0.00,,,-99.99,Meteorologica,2013-01-09 10:01:00,
2013-01-09 04:06:00,25.4,23.8,30.32,South,183,0.0,0.0,93,0.00,,,-99.99,Meteorologica,2013-01-09 10:06:00,
2013-01-09 04:11:00,25.4,23.8,30.32,South,183,0.0,0.0,93,0.00,,,-99.99,Meteorologica,2013-01-09 10:11:00,
2013-01-09 04:16:00,25.4,23.8,30.32,South,183,0.0,0.0,93,0.00,,,-99.99,Meteorologica,2013-01-09 10:16:00,
2013-01-09 04:21:00,25.3,23.7,30.32,South,183,0.0,0.0,93,0.00,,,-99.99,Meteorologica,2013-01-09 10:21:00,
2013-01-09 04:26:00,25.3,23.7,30.32,South,183,0.0,0.0,93,0.00,,,-99.99,Meteorologica,2013-01-09 10:26:00,
2013-01-09 04:31:00,25.1,23.5,30.32,South,183,0.0,0.0,93,0.00,,,-99.99,Meteorologica,2013-01-09 10:31:00,
2013-01-09 04:36:00,25.1,23.5,30.32,South,183,0.0,0.0,93,0.00,,,-99.99,Meteorologica,2013-01-09 10:36:00,
2013-01-09 04:41:00,24.9,23.3,30.32,South,183,0.0,0.0,93,0.00,,,-99.99,Meteorologica,2013-01-09 10:41:00,
2013-01-09 04:46:00,24.8,23.2,30.32,South,183,0.0,0.0,93,0.00,,,-99.99,Meteorologica,2013-01-09 10:46:00,
2013-01-09 04:51:00,24.7,23.1,30.32,South,183,0.0,0.0,93,0.00,,,-99.99,Meteorologica,2013-01-09 10:51:00,
2013-01-09 04:56:00,24.7,23.2,30.33,South,183,0.0,0.0,93,0.00,,,-99.99,Meteorologica,2013-01-09 10:56:00,
2013-01-09 05:01:00,24.7,23.2,30.32,South,183,0.0,0.0,94,0.00,,,-99.99,Meteorologica,2013-01-09 11:01:00,
2013-01-09 05:06:00,24.8,23.2,30.32,South,183,0.0,0.0,93,0.00,,,-99.99,Meteorologica,2013-01-09 11:06:00,
2013-01-09 05:11:00,24.7,23.2,30.32,South,183,0.0,0.0,93,0.00,,,-99.99,Meteorologica,2013-01-09 11:11:00,
2013-01-09 05:16:00,24.7,23.2,30.32,South,183,0.0,0.0,93,0.00,,,-99.99,Meteorologica,2013-01-09 11:16:00,
2013-01-09 05:21:00,24.8,23.3,30.33,South,183,0.0,0.0,94,0.00,,,-99.99,Meteorologica,2013-01-09 11:21:00,
2013-01-09 05:26:00,24.9,23.4,30.33,South,183,0.0,0.0,94,0.00,,,-99.99,Meteorologica,2013-01-09 11:26:00,
2013-01-09 05:31:00,24.8,23.3,30.33,South,183,0.0,0.0,94,0.00,,,-99.99,Meteorologica,2013-01-09 11:31:00,
2013-01-09 05:36:00,24.9,23.3,30.32,South,183,0.0,0.0,93,0.00,,,-99.99,Meteorologica,2013-01-09 11:36:00,
2013-01-09 05:41:00,25.0,23.5,30.32,South,183,0.0,0.0,94,0.00,,,-99.99,Meteorologica,2013-01-09 11:41:00,
2013-01-09 05:46:00,25.1,23.6,30.33,South,183,0.0,0.0,94,0.00,,,-99.99,Meteorologica,2013-01-09 11:46:00,
2013-01-09 05:51:00,25.1,23.6,30.32,South,183,0.0,0.0,94,0.00,,,-99.99,Meteorologica,2013-01-09 11:51:00,
2013-01-09 05:56:00,25.1,23.5,30.32,South,183,0.0,0.0,93,0.00,,,-99.99,Meteorologica,2013-01-09 11:56:00,
2013-01-09 06:01:00,25.1,23.5,30.32,South,183,0.0,0.0,93,0.00,,,-99.99,Meteorologica,2013-01-09 12:01:00,
2013-01-09 06:06:00,24.9,23.3,30.32,South,183,0.0,0.0,93,0.00,,,-99.99,Meteorologica,2013-01-09 12:06:00,
2013-01-09 06:11:00,24.9,23.3,30.33,South,183,0.0,0.0,93,0.00,,,-99.99,Meteorologica,2013-01-09 12:11:00,
2013-01-09 06:16:00,24.9,23.3,30.32,South,183,0.0,0.0,93,0.00,,,-99.99,Meteorologica,2013-01-09 12:16:00,
2013-01-09 06:21:00,24.7,23.1,30.32,South,183,0.0,0.0,93,0.00,,,-99.99,Meteorologica,2013-01-09 12:21:00,
2013-01-09 06:26:00,24.8,23.2,30.33,South,183,0.0,0.0,93,0.00,,,-99.99,Meteorologica,2013-01-09 12:26:00,
2013-01-09 06:31:00,24.7,23.2,30.34,South,183,0.0,0.0,93,0.00,,,-99.99,Meteorologica,2013-01-09 12:31:00,
2013-01-09 06:36:00,24.7,23.1,30.35,South,183,0.0,0.0,93,0.00,,,-99.99,Meteorologica,2013-01-09 12:36:00,
2013-01-09 06:41:00,24.6,23.0,30.35,South,183,0.0,0.0,93,0.00,,,-99.99,Meteorologica,2013-01-09 12:41:00,
2013-01-09 06:46:00,24.6,23.0,30.35,South,183,0.0,0.0,93,0.00,,,-99.99,Meteorologica,2013-01-09 12:46:00,
2013-01-09 06:51:00,24.7,23.2,30.36,South,183,0.0,0.0,93,0.00,,,-99.99,Meteorologica,2013-01-09 12:51:00,
2013-01-09 06:56:00,24.7,23.2,30.37,South,183,0.0,0.0,93,0.00,,,-99.99,Meteorologica,2013-01-09 12:56:00,
2013-01-09 07:01:00,24.7,23.2,30.37,South,183,0.0,0.0,93,0.00,,,-99.99,Meteorologica,2013-01-09 13:01:00,
2013-01-09 07:06:00,24.7,23.2,30.37,South,183,0.0,0.0,93,0.00,,,-99.99,Meteorologica,2013-01-09 13:06:00,
2013-01-09 07:11:00,24.8,23.2,30.37,South,183,0.0,0.0,93,0.00,,,-99.99,Meteorologica,2013-01-09 13:11:00,
2013-01-09 07:16:00,24.8,23.2,30.37,South,183,0.0,0.0,93,0.00,,,-99.99,Meteorologica,2013-01-09 13:16:00,
2013-01-09 07:21:00,24.7,23.1,30.38,South,183,0.0,0.0,93,0.00,,,-99.99,Meteorologica,2013-01-09 13:21:00,
2013-01-09 07:26:00,24.6,23.0,30.38,South,183,0.0,0.0,93,0.00,,,-99.99,Meteorologica,2013-01-09 13:26:00,
2013-01-09 07:31:00,24.5,22.9,30.39,South,183,0.0,0.0,93,0.00,,,-99.99,Meteorologica,2013-01-09 13:31:00,
2013-01-09 07:36:00,24.4,22.8,30.39,South,183,0.0,0.0,93,0.00,,,-99.99,Meteorologica,2013-01-09 13:36:00,
2013-01-09 07:41:00,24.4,22.9,30.40,South,183,0.0,0.0,93,0.00,,,-99.99,Meteorologica,2013-01-09 13:41:00,
2013-01-09 07:46:00,24.3,22.8,30.40,South,183,0.0,0.0,93,0.00,,,-99.99,Meteorologica,2013-01-09 13:46:00,
2013-01-09 07:51:00,24.1,22.6,30.40,South,183,0.0,0.0,93,0.00,,,-99.99,Meteorologica,2013-01-09 13:51:00,
2013-01-09 07:56:00,24.1,22.6,30.40,South,183,0.0,0.0,93,0.00,,,-99.99,Meteorologica,2013-01-09 13:56:00,
2013-01-09 08:01:00,24.1,22.6,30.41,South,183,0.0,0.0,94,0.00,,,-99.99,Meteorologica,2013-01-09 14:01:00,
2013-01-09 08:06:00,24.1,22.6,30.41,South,183,0.0,0.0,94,0.00,,,-99.99,Meteorologica,2013-01-09 14:06:00,
2013-01-09 08:11:00,24.1,22.6,30.41,South,183,0.0,0.0,94,0.00,,,-99.99,Meteorologica,2013-01-09 14:11:00,
2013-01-09 08:16:00,24.1,22.6,30.42,South,183,0.0,0.0,94,0.00,,,-99.99,Meteorologica,2013-01-09 14:16:00,
2013-01-09 08:21:00,24.3,22.9,30.42,South,183,0.0,0.0,94,0.00,,,-99.99,Meteorologica,2013-01-09 14:21:00,
2013-01-09 08:26:00,24.3,22.9,30.42,South,183,0.0,0.0,94,0.00,,,-99.99,Meteorologica,2013-01-09 14:26:00,
2013-01-09 08:31:00,24.3,22.9,30.43,South,183,0.0,0.0,94,0.00,,,-99.99,Meteorologica,2013-01-09 14:31:00,
2013-01-09 08:36:00,24.3,22.9,30.44,South,183,0.0,0.0,94,0.00,,,-99.99,Meteorologica,2013-01-09 14:36:00,
2013-01-09 08:41:00,24.3,22.9,30.44,South,183,0.0,0.0,94,0.00,,,-99.99,Meteorologica,2013-01-09 14:41:00,
2013-01-09 08:46:00,24.5,23.1,30.45,South,183,0.0,0.0,94,0.00,,,-99.99,Meteorologica,2013-01-09 14:46:00,
2013-01-09 08:52:00,24.6,23.2,30.45,South,183,0.0,0.0,94,0.00,,,-99.99,Meteorologica,2013-01-09 14:52:00,
2013-01-09 08:57:00,24.8,23.3,30.46,South,183,0.0,0.0,94,0.00,,,-99.99,Meteorologica,2013-01-09 14:57:00,
2013-01-09 09:02:00,25.0,23.6,30.46,South,183,0.0,0.0,94,0.00,,,-99.99,Meteorologica,2013-01-09 15:02:00,
2013-01-09 09:07:00,25.3,23.8,30.45,South,183,0.0,0.0,94,0.00,,,-99.99,Meteorologica,2013-01-09 15:07:00,
2013-01-09 09:12:00,25.5,24.0,30.46,South,183,0.0,0.0,94,0.00,,,-99.99,Meteorologica,2013-01-09 15:12:00,
2013-01-09 09:17:00,25.7,24.2,30.46,South,183,0.0,0.0,94,0.00,,,-99.99,Meteorologica,2013-01-09 15:17:00,
2013-01-09 09:22:00,26.0,24.5,30.46,South,183,0.0,0.0,94,0.00,,,-99.99,Meteorologica,2013-01-09 15:22:00,
2013-01-09 09:27:00,26.3,24.8,30.46,South,183,0.0,0.0,94,0.00,,,-99.99,Meteorologica,2013-01-09 15:27:00,
2013-01-09 09:32:00,26.7,25.2,30.46,South,183,0.0,0.0,94,0.00,,,-99.99,Meteorologica,2013-01-09 15:32:00,
2013-01-09 09:37:00,27.0,25.5,30.46,South,183,0.0,0.0,94,0.00,,,-99.99,Meteorologica,2013-01-09 15:37:00,
2013-01-09 09:42:00,27.6,26.1,30.46,South,183,0.0,0.0,94,0.00,,,-99.99,Meteorologica,2013-01-09 15:42:00,
2013-01-09 09:47:00,28.1,26.5,30.47,South,183,0.0,0.0,93,0.00,,,-99.99,Meteorologica,2013-01-09 15:47:00,
2013-01-09 09:52:00,28.7,27.0,30.47,South,183,0.0,0.0,93,0.00,,,-99.99,Meteorologica,2013-01-09 15:52:00,
2013-01-09 09:57:00,29.2,27.4,30.46,South,183,0.0,0.0,93,0.00,,,-99.99,Meteorologica,2013-01-09 15:57:00,
2013-01-09 10:02:00,29.6,27.9,30.46,South,183,0.0,0.0,93,0.00,,,-99.99,Meteorologica,2013-01-09 16:02:00,
2013-01-09 10:07:00,30.2,28.5,30.46,South,183,0.0,0.0,93,0.00,,,-99.99,Meteorologica,2013-01-09 16:07:00,
2013-01-09 10:12:00,30.8,28.9,30.47,South,183,0.0,0.0,92,0.00,,,-99.99,Meteorologica,2013-01-09 16:12:00,
2013-01-09 10:17:00,31.3,29.3,30.47,South,183,0.0,0.0,92,0.00,,,-99.99,Meteorologica,2013-01-09 16:17:00,
2013-01-09 10:22:00,31.8,29.8,30.46,South,183,0.0,0.0,92,0.00,,,-99.99,Meteorologica,2013-01-09 16:22:00,
2013-01-09 10:27:00,32.3,30.2,30.47,South,183,0.0,0.0,92,0.00,,,-99.99,Meteorologica,2013-01-09 16:27:00,
2013-01-09 10:32:00,32.9,30.9,30.46,South,183,0.0,0.0,92,0.00,,,-99.99,Meteorologica,2013-01-09 16:32:00,
2013-01-09 10:37:00,33.7,31.4,30.47,South,183,0.0,0.0,91,0.00,,,-99.99,Meteorologica,2013-01-09 16:37:00,
2013-01-09 10:42:00,34.2,31.6,30.47,West,268,0.0,0.0,90,0.00,,,-99.99,Meteorologica,2013-01-09 16:42:00,
2013-01-09 10:47:00,34.7,32.1,30.47,West,268,0.0,0.0,90,0.00,,,-99.99,Meteorologica,2013-01-09 16:47:00,
2013-01-09 10:52:00,35.2,32.5,30.47,West,268,0.0,0.0,90,0.00,,,-99.99,Meteorologica,2013-01-09 16:52:00,
2013-01-09 10:57:00,35.7,32.7,30.47,West,268,0.0,0.0,88,0.00,,,-99.99,Meteorologica,2013-01-09 16:57:00,
2013-01-09 11:02:00,36.4,33.1,30.47,West,268,0.0,0.0,87,0.00,,,-99.99,Meteorologica,2013-01-09 17:02:00,
2013-01-09 11:07:00,37.1,33.1,30.47,West,268,0.0,0.0,85,0.00,,,-99.99,Meteorologica,2013-01-09 17:07:00,
2013-01-09 11:12:00,37.5,33.5,30.47,West,268,0.0,0.0,85,0.00,,,-99.99,Meteorologica,2013-01-09 17:12:00,
2013-01-09 11:17:00,38.1,33.9,30.47,West,268,0.0,0.0,84,0.00,,,-99.99,Meteorologica,2013-01-09 17:17:00,
2013-01-09 11:22:00,38.6,34.3,30.46,West,268,0.0,0.0,84,0.00,,,-99.99,Meteorologica,2013-01-09 17:22:00,
2013-01-09 11:27:00,39.3,34.7,30.46,West,268,0.0,0.0,83,0.00,,,-99.99,Meteorologica,2013-01-09 17:27:00,
2013-01-09 11:32:00,39.9,34.9,30.46,West,268,0.0,0.0,82,0.00,,,-99.99,Meteorologica,2013-01-09 17:32:00,
2013-01-09 11:37:00,40.5,35.2,30.46,West,268,0.0,0.0,81,0.00,,,-99.99,Meteorologica,2013-01-09 17:37:00,
2013-01-09 11:42:00,41.2,35.2,30.45,West,268,0.0,0.0,79,0.00,,,-99.99,Meteorologica,2013-01-09 17:42:00,
2013-01-09 11:47:00,41.7,35.7,30.44,West,268,0.0,0.0,79,0.00,,,-99.99,Meteorologica,2013-01-09 17:47:00,
2013-01-09 11:52:00,42.3,36.2,30.44,West,268,0.0,0.0,78,0.00,,,-99.99,Meteorologica,2013-01-09 17:52:00,
2013-01-09 11:57:00,42.9,35.7,30.43,West,268,0.0,0.0,75,0.00,,,-99.99,Meteorologica,2013-01-09 17:57:00,
2013-01-09 12:02:00,43.5,36.4,30.43,West,268,0.0,0.0,75,0.00,,,-99.99,Meteorologica,2013-01-09 18:02:00,
2013-01-09 12:07:00,44.1,36.4,30.42,West,268,0.0,0.0,74,0.00,,,-99.99,Meteorologica,2013-01-09 18:07:00,
2013-01-09 12:12:00,44.6,36.8,30.42,West,268,0.0,0.0,73,0.00,,,-99.99,Meteorologica,2013-01-09 18:12:00,
2013-01-09 12:17:00,45.3,37.2,30.42,West,268,0.0,0.0,72,0.00,,,-99.99,Meteorologica,2013-01-09 18:17:00,
2013-01-09 12:22:00,46.1,37.7,30.41,West,268,0.0,0.0,72,0.00,,,-99.99,Meteorologica,2013-01-09 18:22:00,
2013-01-09 12:27:00,46.7,37.8,30.41,West,268,0.0,0.0,70,0.00,,,-99.99,Meteorologica,2013-01-09 18:27:00,
2013-01-09 12:32:00,47.6,38.4,30.41,West,268,0.0,0.0,70,0.00,,,-99.99,Meteorologica,2013-01-09 18:32:00,
2013-01-09 12:37:00,48.4,38.2,30.41,West,268,0.0,0.0,67,0.00,,,-99.99,Meteorologica,2013-01-09 18:37:00,
2013-01-09 12:42:00,49.0,38.5,30.40,West,268,0.0,0.0,66,0.00,,,-99.99,Meteorologica,2013-01-09 18:42:00,
2013-01-09 12:44:00,49.0,38.6,30.40,West,268,0.0,0.0,67,0.00,,,-99.99,Meteorologica,2013-01-09 18:44:00,
2013-01-09 12:46:00,49.3,38.8,30.40,West,268,0.0,0.0,66,0.00,,,-99.99,Meteorologica,2013-01-09 18:46:00,
2013-01-09 12:47:00,49.4,38.8,30.40,West,268,0.0,0.0,66,0.00,,,-99.99,Meteorologica,2013-01-09 18:47:00,
2013-01-09 12:49:00,49.7,38.9,30.40,West,268,0.0,0.0,66,0.00,,,-99.99,Meteorologica,2013-01-09 18:49:00,
2013-01-09 12:51:00,50.0,39.2,30.40,West,268,0.0,0.0,66,0.00,,,-99.99,Meteorologica,2013-01-09 18:51:00,
2013-01-09 12:56:00,50.6,38.7,30.40,West,268,0.0,0.0,63,0.00,,,-99.99,Meteorologica,2013-01-09 18:56:00,
2013-01-09 13:01:00,51.1,39.2,30.40,West,268,0.0,0.0,63,0.00,,,-99.99,Meteorologica,2013-01-09 19:01:00,
2013-01-09 13:06:00,51.5,38.9,30.39,West,268,0.0,0.0,61,0.00,,,-99.99,Meteorologica,2013-01-09 19:06:00,
2013-01-09 13:11:00,52.0,39.5,30.39,West,268,0.0,0.0,61,0.00,,,-99.99,Meteorologica,2013-01-09 19:11:00,
2013-01-09 13:13:00,52.4,39.3,30.39,West,268,0.0,0.0,60,0.00,,,-99.99,Meteorologica,2013-01-09 19:13:00,
2013-01-09 13:18:00,52.9,38.2,30.38,West,268,0.0,0.0,57,0.00,,,-99.99,Meteorologica,2013-01-09 19:18:00,
2013-01-09 13:23:00,53.2,38.7,30.38,West,268,0.0,0.0,57,0.00,,,-99.99,Meteorologica,2013-01-09 19:23:00,
2013-01-09 13:28:00,53.8,38.5,30.38,West,268,0.0,0.0,56,0.00,,,-99.99,Meteorologica,2013-01-09 19:28:00,
2013-01-09 13:33:00,54.5,39.5,30.37,West,268,0.0,0.0,56,0.00,,,-99.99,Meteorologica,2013-01-09 19:33:00,
2013-01-09 13:35:00,54.7,39.4,30.37,West,268,0.0,0.0,56,0.00,,,-99.99,Meteorologica,2013-01-09 19:35:00,
2013-01-09 13:40:00,54.9,38.6,30.37,West,268,0.0,0.0,54,0.00,,,-99.99,Meteorologica,2013-01-09 19:40:00,
2013-01-09 13:45:00,55.2,39.3,30.35,NNE,13,3.8,5.5,54,0.00,,,-99.99,Meteorologica,2013-01-09 19:45:00,
2013-01-09 13:50:00,55.6,39.4,30.36,ENE,76,2.7,6.2,54,0.00,,,-99.99,Meteorologica,2013-01-09 19:50:00,
2013-01-09 13:55:00,56.0,38.3,30.36,ENE,59,0.2,4.1,51,0.00,,,-99.99,Meteorologica,2013-01-09 19:55:00,
2013-01-09 14:00:00,56.2,38.0,30.36,ENE,59,0.0,0.0,50,0.00,,,-99.99,Meteorologica,2013-01-09 20:00:00,
2013-01-09 14:06:00,56.2,39.4,30.35,ENE,59,0.0,0.0,53,0.00,,,-99.99,Meteorologica,2013-01-09 20:06:00,
2013-01-09 14:11:00,56.4,37.8,30.36,ENE,59,0.0,0.0,49,0.00,,,-99.99,Meteorologica,2013-01-09 20:11:00,
2013-01-09 14:16:00,56.5,38.8,30.36,ENE,59,0.0,0.0,51,0.00,,,-99.99,Meteorologica,2013-01-09 20:16:00,
2013-01-09 14:21:00,56.7,39.1,30.36,ENE,59,0.0,0.0,51,0.00,,,-99.99,Meteorologica,2013-01-09 20:21:00,
2013-01-09 14:26:00,57.1,39.3,30.36,ENE,59,0.0,0.0,51,0.00,,,-99.99,Meteorologica,2013-01-09 20:26:00,
2013-01-09 14:31:00,57.4,38.6,30.36,NNE,26,0.0,0.0,48,0.00,,,-99.99,Meteorologica,2013-01-09 20:31:00,
2013-01-09 14:36:00,57.4,38.5,30.37,NNE,26,0.0,0.0,49,0.00,,,-99.99,Meteorologica,2013-01-09 20:36:00,
2013-01-09 14:41:00,57.8,38.7,30.37,NNE,26,0.0,0.0,49,0.00,,,-99.99,Meteorologica,2013-01-09 20:41:00,
2013-01-09 14:46:00,57.9,37.7,30.37,NNE,26,0.0,0.0,47,0.00,,,-99.99,Meteorologica,2013-01-09 20:46:00,
2013-01-09 14:51:00,57.9,37.7,30.37,NNE,26,0.0,0.0,46,0.00,,,-99.99,Meteorologica,2013-01-09 20:51:00,
2013-01-09 14:56:00,57.9,37.5,30.37,NNE,26,0.0,0.0,46,0.00,,,-99.99,Meteorologica,2013-01-09 20:56:00,
2013-01-09 15:01:00,57.8,37.3,30.37,NNE,26,0.0,0.0,46,0.00,,,-99.99,Meteorologica,2013-01-09 21:01:00,
2013-01-09 15:06:00,57.7,38.0,30.37,NNE,26,0.0,0.0,47,0.00,,,-99.99,Meteorologica,2013-01-09 21:06:00,
2013-01-09 15:11:00,57.5,37.5,30.37,NNE,26,0.0,0.0,47,0.00,,,-99.99,Meteorologica,2013-01-09 21:11:00,
2013-01-09 15:16:00,57.3,37.6,30.37,NNE,26,0.0,0.0,47,0.00,,,-99.99,Meteorologica,2013-01-09 21:16:00,
2013-01-09 15:21:00,57.4,37.8,30.37,NNE,26,0.0,0.0,48,0.00,,,-99.99,Meteorologica,2013-01-09 21:21:00,
2013-01-09 15:26:00,57.4,37.3,30.37,NNE,26,0.0,0.0,47,0.00,,,-99.99,Meteorologica,2013-01-09 21:26:00,
2013-01-09 15:31:00,57.5,36.6,30.37,NNE,26,0.0,0.0,45,0.00,,,-99.99,Meteorologica,2013-01-09 21:31:00,
2013-01-09 15:36:00,57.4,37.3,30.37,NNE,26,0.0,0.0,47,0.00,,,-99.99,Meteorologica,2013-01-09 21:36:00,
2013-01-09 15:41:00,57.3,36.8,30.37,NNE,26,0.0,0.0,46,0.00,,,-99.99,Meteorologica,2013-01-09 21:41:00,
2013-01-09 15:46:00,57.2,36.5,30.37,NNE,26,0.0,0.0,45,0.00,,,-99.99,Meteorologica,2013-01-09 21:46:00,
2013-01-09 15:51:00,57.2,36.9,30.37,NNE,26,0.0,0.0,46,0.00,,,-99.99,Meteorologica,2013-01-09 21:51:00,
2013-01-09 15:56:00,57.3,37.1,30.37,NNE,26,0.0,0.0,46,0.00,,,-99.99,Meteorologica,2013-01-09 21:56:00,
2013-01-09 16:01:00,57.2,37.9,30.37,NNE,26,0.0,0.0,48,0.00,,,-99.99,Meteorologica,2013-01-09 22:01:00,
2013-01-09 16:06:00,56.9,37.8,30.37,SSE,166,2.2,6.7,48,0.00,,,-99.99,Meteorologica,2013-01-09 22:06:00,
2013-01-09 16:11:00,56.7,38.5,30.37,SE,136,0.0,0.0,50,0.00,,,-99.99,Meteorologica,2013-01-09 22:11:00,
2013-01-09 16:16:00,56.4,38.5,30.37,SSE,149,0.0,0.0,51,0.00,,,-99.99,Meteorologica,2013-01-09 22:16:00,
2013-01-09 16:21:00,56.1,38.5,30.37,SSE,149,0.0,0.0,51,0.00,,,-99.99,Meteorologica,2013-01-09 22:21:00,
2013-01-09 16:26:00,55.7,38.3,30.38,SSE,149,0.0,0.0,51,0.00,,,-99.99,Meteorologica,2013-01-09 22:26:00,
2013-01-09 16:31:00,55.2,38.1,30.38,SSE,149,0.0,0.0,52,0.00,,,-99.99,Meteorologica,2013-01-09 22:31:00,
2013-01-09 16:36:00,54.9,38.0,30.38,SSE,149,0.0,0.0,52,0.00,,,-99.99,Meteorologica,2013-01-09 22:36:00,
2013-01-09 16:41:00,54.4,37.8,30.38,SSE,149,0.0,0.0,53,0.00,,,-99.99,Meteorologica,2013-01-09 22:41:00,
2013-01-09 16:46:00,53.8,37.7,30.37,SSE,149,0.0,0.0,54,0.00,,,-99.99,Meteorologica,2013-01-09 22:46:00,
2013-01-09 16:51:00,53.3,37.6,30.37,SSE,149,0.0,0.0,55,0.00,,,-99.99,Meteorologica,2013-01-09 22:51:00,
2013-01-09 16:56:00,52.8,37.5,30.38,SSE,149,0.0,0.0,55,0.00,,,-99.99,Meteorologica,2013-01-09 22:56:00,
2013-01-09 17:01:00,52.2,37.4,30.37,SSE,149,0.0,0.0,56,0.00,,,-99.99,Meteorologica,2013-01-09 23:01:00,
2013-01-09 17:06:00,51.2,37.0,30.38,SSE,149,0.0,0.0,58,0.00,,,-99.99,Meteorologica,2013-01-09 23:06:00,
2013-01-09 17:11:00,50.3,36.9,30.37,SSE,149,0.0,0.0,59,0.00,,,-99.99,Meteorologica,2013-01-09 23:11:00,
2013-01-09 17:16:00,49.6,36.6,30.37,SSE,149,0.0,0.0,60,0.00,,,-99.99,Meteorologica,2013-01-09 23:16:00,
2013-01-09 17:21:00,49.0,36.7,30.37,SSE,149,0.0,0.0,62,0.00,,,-99.99,Meteorologica,2013-01-09 23:21:00,
2013-01-09 17:26:00,48.3,36.4,30.37,SSE,149,0.0,0.0,63,0.00,,,-99.99,Meteorologica,2013-01-09 23:26:00,
2013-01-09 17:31:00,47.9,36.3,30.37,SSE,149,0.0,0.0,63,0.00,,,-99.99,Meteorologica,2013-01-09 23:31:00,
2013-01-09 17:36:00,47.5,36.3,30.37,SSE,149,0.0,0.0,64,0.00,,,-99.99,Meteorologica,2013-01-09 23:36:00,
2013-01-09 17:41:00,47.0,36.1,30.37,SSE,149,0.0,0.0,65,0.00,,,-99.99,Meteorologica,2013-01-09 23:41:00,
2013-01-09 17:46:00,46.5,36.0,30.38,SSE,149,0.0,0.0,66,0.00,,,-99.99,Meteorologica,2013-01-09 23:46:00,
2013-01-09 17:51:00,46.1,36.0,30.37,SSE,149,0.0,0.0,67,0.00,,,-99.99,Meteorologica,2013-01-09 23:51:00,
2013-01-09 17:56:00,45.6,35.9,30.37,SSE,149,0.0,0.0,68,0.00,,,-99.99,Meteorologica,2013-01-09 23:56:00,
2013-01-09 18:01:00,45.0,35.6,30.38,SSE,149,0.0,0.0,69,0.00,,,-99.99,Meteorologica,2013-01-10 00:01:00,
2013-01-09 18:06:00,44.2,35.3,30.37,SSE,149,0.0,0.0,70,0.00,,,-99.99,Meteorologica,2013-01-10 00:06:00,
2013-01-09 18:11:00,43.6,35.1,30.38,SSE,149,0.0,0.0,71,0.00,,,-99.99,Meteorologica,2013-01-10 00:11:00,
2013-01-09 18:16:00,43.5,35.3,30.39,SSE,149,0.0,0.0,72,0.00,,,-99.99,Meteorologica,2013-01-10 00:16:00,
2013-01-09 18:21:00,42.8,35.0,30.38,SSE,149,0.0,0.0,73,0.00,,,-99.99,Meteorologica,2013-01-10 00:21:00,
2013-01-09 18:26:00,42.5,34.9,30.39,SSE,149,0.0,0.0,74,0.00,,,-99.99,Meteorologica,2013-01-10 00:26:00,
2013-01-09 18:31:00,42.1,34.7,30.39,SSE,149,0.0,0.0,74,0.00,,,-99.99,Meteorologica,2013-01-10 00:31:00,
2013-01-09 18:36:00,41.9,34.7,30.39,SSE,149,0.0,0.0,75,0.00,,,-99.99,Meteorologica,2013-01-10 00:36:00,
2013-01-09 18:41:00,41.3,34.4,30.39,SSE,149,0.0,0.0,76,0.00,,,-99.99,Meteorologica,2013-01-10 00:41:00,
2013-01-09 18:46:00,40.8,34.2,30.39,SSE,149,0.0,0.0,77,0.00,,,-99.99,Meteorologica,2013-01-10 00:46:00,
2013-01-09 18:51:00,40.2,33.9,30.39,SSE,149,0.0,0.0,78,0.00,,,-99.99,Meteorologica,2013-01-10 00:51:00,
2013-01-09 18:56:00,39.9,33.9,30.40,SSE,149,0.0,0.0,78,0.00,,,-99.99,Meteorologica,2013-01-10 00:56:00,
2013-01-09 19:01:00,39.7,33.9,30.39,SSE,149,0.0,0.0,79,0.00,,,-99.99,Meteorologica,2013-01-10 01:01:00,
2013-01-09 19:06:00,39.5,33.6,30.39,SSE,149,0.0,0.0,79,0.00,,,-99.99,Meteorologica,2013-01-10 01:06:00,
2013-01-09 19:11:00,39.3,33.5,30.39,SSE,149,0.0,0.0,79,0.00,,,-99.99,Meteorologica,2013-01-10 01:11:00,
2013-01-09 19:16:00,39.3,33.7,30.39,SSE,149,0.0,0.0,80,0.00,,,-99.99,Meteorologica,2013-01-10 01:16:00,
2013-01-09 19:21:00,39.4,33.6,30.39,SSE,149,0.0,0.0,79,0.00,,,-99.99,Meteorologica,2013-01-10 01:21:00,
2013-01-09 19:26:00,39.3,33.5,30.38,SSE,149,0.0,0.0,79,0.00,,,-99.99,Meteorologica,2013-01-10 01:26:00,
2013-01-09 19:31:00,39.0,33.4,30.38,SSE,149,0.0,0.0,80,0.00,,,-99.99,Meteorologica,2013-01-10 01:31:00,
2013-01-09 19:36:00,38.7,33.2,30.38,SSE,149,0.0,0.0,80,0.00,,,-99.99,Meteorologica,2013-01-10 01:36:00,
2013-01-09 19:41:00,38.5,33.0,30.38,SSE,149,0.0,0.0,80,0.00,,,-99.99,Meteorologica,2013-01-10 01:41:00,
2013-01-09 19:46:00,38.2,32.9,30.38,SSE,149,0.0,0.0,81,0.00,,,-99.99,Meteorologica,2013-01-10 01:46:00,
2013-01-09 19:51:00,37.9,32.7,30.38,SSE,149,0.0,0.0,81,0.00,,,-99.99,Meteorologica,2013-01-10 01:51:00,
2013-01-09 19:56:00,37.7,32.8,30.38,SSE,149,0.0,0.0,82,0.00,,,-99.99,Meteorologica,2013-01-10 01:56:00,
2013-01-09 20:01:00,37.2,32.7,30.38,SSE,149,0.0,0.0,83,0.00,,,-99.99,Meteorologica,2013-01-10 02:01:00,
2013-01-09 20:06:00,36.7,32.3,30.38,SSE,149,0.0,0.0,83,0.00,,,-99.99,Meteorologica,2013-01-10 02:06:00,
2013-01-09 20:11:00,36.4,32.2,30.38,SSE,149,0.0,0.0,84,0.00,,,-99.99,Meteorologica,2013-01-10 02:11:00,
2013-01-09 20:16:00,36.1,32.0,30.38,SSE,149,0.0,0.0,85,0.00,,,-99.99,Meteorologica,2013-01-10 02:16:00,
2013-01-09 20:21:00,35.8,31.9,30.38,SSE,149,0.0,0.0,85,0.00,,,-99.99,Meteorologica,2013-01-10 02:21:00,
2013-01-09 20:26:00,35.5,32.0,30.37,SSE,149,0.0,0.0,87,0.00,,,-99.99,Meteorologica,2013-01-10 02:26:00,
2013-01-09 20:31:00,35.5,31.9,30.37,SSE,149,0.0,0.0,86,0.00,,,-99.99,Meteorologica,2013-01-10 02:31:00,
2013-01-09 20:37:00,35.3,31.8,30.37,SSE,149,0.0,0.0,87,0.00,,,-99.99,Meteorologica,2013-01-10 02:37:00,
2013-01-09 20:42:00,35.2,35.2,30.37,SSE,149,0.0,0.0,100,0.00,,,-99.99,Meteorologica,2013-01-10 02:42:00,
2013-01-09 20:47:00,35.0,31.7,30.37,SSE,149,0.0,0.0,87,0.00,,,-99.99,Meteorologica,2013-01-10 02:47:00,
2013-01-09 20:52:00,34.9,31.5,30.37,SSE,149,0.0,0.0,87,0.00,,,-99.99,Meteorologica,2013-01-10 02:52:00,
2013-01-09 20:57:00,34.7,31.4,30.37,SSE,149,0.0,0.0,87,0.00,,,-99.99,Meteorologica,2013-01-10 02:57:00,
2013-01-09 21:02:00,34.7,31.5,30.37,SSE,149,0.0,0.0,88,0.00,,,-99.99,Meteorologica,2013-01-10 03:02:00,
2013-01-09 21:07:00,34.6,31.7,30.37,SSE,149,0.0,0.0,89,0.00,,,-99.99,Meteorologica,2013-01-10 03:07:00,
2013-01-09 21:12:00,34.8,31.5,30.37,SSE,149,0.0,0.0,87,0.00,,,-99.99,Meteorologica,2013-01-10 03:12:00,
2013-01-09 21:17:00,34.9,31.6,30.37,SSE,149,0.0,0.0,87,0.00,,,-99.99,Meteorologica,2013-01-10 03:17:00,
2013-01-09 21:22:00,35.0,31.7,30.37,SSE,149,0.0,0.0,87,0.00,,,-99.99,Meteorologica,2013-01-10 03:22:00,
2013-01-09 21:27:00,35.2,32.0,30.37,SSE,149,0.0,0.0,88,0.00,,,-99.99,Meteorologica,2013-01-10 03:27:00,
2013-01-09 21:32:00,35.4,32.1,30.37,SSE,149,0.0,0.0,87,0.00,,,-99.99,Meteorologica,2013-01-10 03:32:00,
2013-01-09 21:37:00,35.6,32.4,30.37,SSE,149,0.0,0.0,88,0.00,,,-99.99,Meteorologica,2013-01-10 03:37:00,
2013-01-09 21:42:00,36.0,32.5,30.38,SSE,149,0.0,0.0,87,0.00,,,-99.99,Meteorologica,2013-01-10 03:42:00,
2013-01-09 21:47:00,36.1,32.5,30.38,SSE,149,0.0,0.0,86,0.00,,,-99.99,Meteorologica,2013-01-10 03:47:00,
2013-01-09 21:52:00,36.0,32.3,30.38,SSE,149,0.0,0.0,86,0.00,,,-99.99,Meteorologica,2013-01-10 03:52:00,
2013-01-09 21:57:00,35.8,32.2,30.38,SSE,149,0.0,0.0,86,0.00,,,-99.99,Meteorologica,2013-01-10 03:57:00,
2013-01-09 22:03:00,35.5,32.0,30.38,SSE,149,0.0,0.0,87,0.00,,,-99.99,Meteorologica,2013-01-10 04:03:00,
2013-01-09 22:08:00,35.3,31.8,30.38,SSE,149,0.0,0.0,87,0.00,,,-99.99,Meteorologica,2013-01-10 04:08:00,
2013-01-09 22:13:00,35.0,31.7,30.38,SSE,149,0.0,0.0,87,0.00,,,-99.99,Meteorologica,2013-01-10 04:13:00,
2013-01-09 22:19:00,34.5,31.4,30.38,SSE,149,0.0,0.0,88,0.00,,,-99.99,Meteorologica,2013-01-10 04:19:00,
2013-01-09 22:24:00,34.4,31.4,30.38,SSE,149,0.0,0.0,88,0.00,,,-99.99,Meteorologica,2013-01-10 04:24:00,
2013-01-09 22:29:00,34.2,31.2,30.38,SSE,149,0.0,0.0,89,0.00,,,-99.99,Meteorologica,2013-01-10 04:29:00,
2013-01-09 22:34:00,34.0,31.1,30.38,SSE,149,0.0,0.0,89,0.00,,,-99.99,Meteorologica,2013-01-10 04:34:00,
2013-01-09 22:39:00,33.9,31.1,30.38,SSE,149,0.0,0.0,89,0.00,,,-99.99,Meteorologica,2013-01-10 04:39:00,
2013-01-09 22:44:00,33.6,30.8,30.38,SSE,149,0.0,0.0,89,0.00,,,-99.99,Meteorologica,2013-01-10 04:44:00,
2013-01-09 22:49:00,33.3,30.6,30.37,SSE,149,0.0,0.0,90,0.00,,,-99.99,Meteorologica,2013-01-10 04:49:00,
2013-01-09 22:54:00,33.1,30.5,30.37,SSE,149,0.0,0.0,90,0.00,,,-99.99,Meteorologica,2013-01-10 04:54:00,
2013-01-09 22:59:00,32.8,30.3,30.37,SSE,149,0.0,0.0,90,0.00,,,-99.99,Meteorologica,2013-01-10 04:59:00,
2013-01-09 23:01:00,32.6,30.1,30.37,SSE,149,0.0,0.0,90,0.00,,,-99.99,Meteorologica,2013-01-10 05:01:00,
2013-01-09 23:03:00,32.5,30.0,30.37,SSE,149,0.0,0.0,90,0.00,,,-99.99,Meteorologica,2013-01-10 05:03:00,
2013-01-09 23:08:00,32.1,29.7,30.37,SSE,149,0.0,0.0,90,0.00,,,-99.99,Meteorologica,2013-01-10 05:08:00,
2013-01-09 23:10:00,32.1,29.7,30.37,SSE,149,0.0,0.0,91,0.00,,,-99.99,Meteorologica,2013-01-10 05:10:00,
2013-01-09 23:13:00,32.0,29.7,30.37,SSE,149,0.0,0.0,91,0.00,,,-99.99,Meteorologica,2013-01-10 05:13:00,
2013-01-09 23:18:00,31.9,29.7,30.36,SSE,149,0.0,0.0,91,0.00,,,-99.99,Meteorologica,2013-01-10 05:18:00,
2013-01-09 23:23:00,31.6,29.4,30.35,SSE,149,0.0,0.0,91,0.00,,,-99.99,Meteorologica,2013-01-10 05:23:00,
2013-01-09 23:28:00,31.3,29.1,30.36,SSE,149,0.0,0.0,91,0.00,,,-99.99,Meteorologica,2013-01-10 05:28:00,
2013-01-09 23:33:00,31.1,29.0,30.35,SSE,149,0.0,0.0,92,0.00,,,-99.99,Meteorologica,2013-01-10 05:33:00,
2013-01-09 23:38:00,31.1,29.0,30.35,SSE,149,0.0,0.0,91,0.00,,,-99.99,Meteorologica,2013-01-10 05:38:00,
2013-01-09 23:43:00,30.9,28.8,30.35,SSE,149,0.0,0.0,91,0.00,,,-99.99,Meteorologica,2013-01-10 05:43:00,
2013-01-09 23:48:00,30.9,28.8,30.35,SSE,149,0.0,0.0,91,0.00,,,-99.99,Meteorologica,2013-01-10 05:48:00,
2013-01-09 23:53:00,30.9,28.8,30.35,SSE,149,0.0,0.0,91,0.00,,,-99.99,Meteorologica,2013-01-10 05:53:00,
2013-01-09 23:58:00,30.9,28.8,30.35,SSE,149,0.0,0.0,91,0.00,,,-99.99,Meteorologica,2013-01-10 05:58:00,